Regional Weather Roundup
Issued by NWS Wakefield, VA

Home | Current Version | Previous Version | Text Only | Print | Product List | Glossary Off
Versions: 1 2 3 4 5 6 7 8 9 10 11 12 13 14 15 16 17 18 19 20 21 22 23 24 25 26 27 28 29 30 31 32 33 34 35 36 37 38 39 40 41 42 43 44 45 46 47 48 49 50

000
ASUS41 KAKQ 161310
RWRAKQ

REGIONAL WEATHER ROUNDUP
NATIONAL WEATHER SERVICE WAKEFIELD VA
900 AM EDT TUE SEP 16 2014

Note: "fair" indicates few or no clouds below 12,000 feet with no
significant weather and/or obstructions to visibility. * = Denotes
station may not report precipitation (e.g., rain,snow,etc.),
thunder or fog.

VAZ042-051-052>054-056-161400-
NORTHERN VIRGINIA

CITY           SKY/WX    TMP DP  RH WIND       PRES   REMARKS
WASH NATIONAL  MOSUNNY   71  56  58 W6        30.03S
DULLES         MOSUNNY   67  57  70 NW3       30.04R
FORT BELVOIR   SUNNY     70  59  69 NW7       30.03S
QUANTICO       MOSUNNY   67  62  84 W6        30.04R
FREDERICKSBRG* SUNNY     68  66  93 CALM      30.03S
STAFFORD*      SUNNY     67  67 100 CALM      30.07S
WARRENTON      SUNNY     69  68  95 CALM      30.03S
CULPEPER*      MOSUNNY  N/A N/A N/A CALM      30.05R
MANASSAS*      PTSUNNY   66  61  82 CALM      30.04R
LEESBURG*      MOSUNNY   66  59  77 NW12      30.05S
WINCHESTER     CLOUDY    68  54  60 NW14      30.06R
FRONT ROYAL*   CLOUDY    61  59  94 CALM      30.05S
LURAY*         PTSUNNY   64  63  94 CALM      30.06R
$$

VAZ048-049-060>072-079>083-161400-
CENTRAL AND SOUTH CENTRAL VIRGINIA...AND NORTH CENTRAL NORTH CAROLINA

CITY           SKY/WX    TMP DP  RH WIND       PRES   REMARKS
RICHMOND       MOSUNNY   72  65  78 NW5       30.04R
CHESTERFIELD*  CLOUDY    68  57  68 W5        30.05S
PETERSBURG*    CLOUDY    66  65  96 W3        30.05S FOG
HANOVER        SUNNY     69  65  86 VRB3      30.05S
TAPPAHANNOCK*  CLOUDY    67  64  87 SW3       30.05R
CHARLOTTSVILLE MOSUNNY   65  63  93 CALM      30.05R
ORANGE*        MOSUNNY   66  63  88 CALM      30.04F
LOUISA*        FOG       64  63  94 CALM      30.04R VSB 3/4
FARMVILLE*     SUNNY     68  66  94 SW3       30.03S
CREWE*         SUNNY     72  67  84 W3        30.05R
FORT PICKETT*  SUNNY     68  66  92 W5        30.05R
LUNENBURG*     PTSUNNY   67  65  93 CALM      30.05S
SOUTH HILL*    CLOUDY    70  70 100 W3        30.10S
LAWRENCEVILLE* PTSUNNY   68  66  92 W5        30.05S
ROANOKE RAPIDS MOSUNNY   68  66  94 W7        30.05S
RALEIGH        PTSUNNY   72  67  84 NW5       30.06F
$$

VAZ088>098-161400-
SOUTHEAST VIRGINIA

CITY           SKY/WX    TMP DP  RH WIND       PRES   REMARKS
NORFOLK        SUNNY     72  65  78 SW10      30.04R
VIRGINIA BEACH PTSUNNY   72  68  87 W9        30.02F
NORFOLK NAVAL  PTSUNNY   72  66  81 W8        30.05S
WEST POINT*    NOT AVBL
NEWPORT NEWS   CLOUDY    74  65  73 W8        30.04R
LANGLEY AFB    PTSUNNY   72  68  88 W7        30.03S
FORT EUSTIS    PTSUNNY   68  68 100 VRB2      30.02S
WILLIAMSBURG*  PTSUNNY   72  66  83 W5        30.05S
HR EXEC AP*    MOSUNNY   70  66  88 W7        30.06S
FRANKLIN*        N/A     70  68  94 SW5       30.04S
WAKEFIELD      NOT AVBL
$$

VAZ020-022-025-037-045-161400-
WEST CENTRAL AND SOUTHWEST VIRGINIA

CITY           SKY/WX    TMP DP  RH WIND       PRES   REMARKS
STAUNTON*      MOSUNNY   64  59  82 CALM      30.09R
HOT SPRINGS VA CLOUDY    54  52  94 W7        30.16S
LYNCHBURG      CLOUDY    63  62  97 S3        30.08R
DANVILLE       SUNNY     68  65  90 W5        30.07S FOG
SOUTH BOSTON*  NOT AVBL
MARTINSVILLE   PTSUNNY   65  65 100 CALM      30.10S
ROANOKE        CLOUDY    67  57  70 W8        30.10R
BLACKSBURG     PTSUNNY   66  63  88 NW6       30.13S
DUBLIN*        CLOUDY    66  61  83 W5        30.12F
MARION*        CLOUDY    64  63  94 SW6       30.16S FOG
HILLSVILLE*    PTSUNNY   63  60  91 W5        30.13S
RICHLANDS*     CLOUDY    65  62  89 W5        30.15R
WISE*          CLOUDY    63  61  94 CALM      30.16S
ABINGDON*      CLOUDY    67  67 100 W5        30.13S FOG
$$

MDZ021>025-VAZ099-100-161400-
SOUTHERN MARYLAND AND THE DELMARVA PENINSULA

CITY           SKY/WX    TMP DP  RH WIND       PRES   REMARKS
PATUXENT RIVER MOSUNNY   71  61  70 NW10      30.02R
BAY BRIDGE APT   N/A     68  59  73 W7        30.01R
LEONARDTOWN    MOSUNNY   68  61  77 W6        30.04S
DOVER          PTSUNNY   65  65 100 W7        29.97F
GEORGETOWN     PTSUNNY   69  64  84 W8        30.00F
EASTON         SUNNY     70  70 100 CALM      30.04S
CAMBRIDGE      SUNNY     72  61  68 W6        30.00S
SALISBURY        N/A    N/A N/A N/A MISG      30.01R
OCEAN CITY     MOSUNNY   70  65  84 W7        30.00S
WALLOPS ISLAND MOSUNNY   72  68  87 W7        30.01F
ACCOMACK*      MOSUNNY   72  64  78 W9        30.02S
$$

NCZ012>017-030>032-161400-
EASTERN NORTH CAROLINA

CITY           SKY/WX    TMP DP  RH WIND       PRES   REMARKS
ELIZABETH CITY SUNNY     73  67  81 SW8       30.04F
AHOSKIE*       MOSUNNY   70  66  89 CALM      30.05F
EDENTON*       MOSUNNY   73  68  83 SW3       30.04F
CURRITUCK*     PTSUNNY   73  67  82 SW7       30.04F
KILL DEVIL HLS MOSUNNY   74  67  78 SW6       30.04S
MANTEO         PTSUNNY   73  67  82 SW6       30.05S
CAPE HATTERAS  PTSUNNY   74  69  85 W3        30.05F
TARBORO*       CLOUDY    70  67  90 W5        30.06F
GOLDSBORO      CLOUDY    72  72 100 CALM      30.04S
WASHINGTON     MOSUNNY   71  67  86 SW3       30.05F
GREENVILLE     PTSUNNY   72  68  88 W5        30.07S
NEW BERN       CLOUDY    75  67  76 CALM      30.06S
WILMINGTON     PTSUNNY   75  72  90 NW5       30.05R
$$

VAZ048-161400-
ELSEWHERE

CITY           SKY/WX    TMP DP  RH WIND       PRES   REMARKS
HARRISBURG PA  PTSUNNY   61  55  81 NW7       30.03R HAZE
BALTIMORE      MOSUNNY   67  59  75 W6        30.01S
ANNAPOLIS      MOSUNNY   69  59  70 NW8       30.01R
ANDREWS AFB    SUNNY     69  59  70 W9        30.02S
WILMINGTON DE  MOSUNNY   65  61  87 W8        30.01R
PHILADELPHIA   PTSUNNY   64  60  87 W8        30.00S
WILDWOOD NJ*   CLOUDY    66  64  94 S7        30.00F
ATLANTIC CITY  CLOUDY    66  63  90 S9        29.98F
HENDERSON NC   SUNNY     70  65  83 W5        30.06F
GREENSBORO     PTSUNNY   70  65  84 CALM      30.07S
ROCKY MOUNT    PTSUNNY   72  68  87 SW6       30.06S
FAYETTEVILLE   CLOUDY    72  70  93 CALM      30.06S FOG
CHARLOTTE      PTSUNNY   73  67  81 SW3       30.08S
$$

VAZ100-161400-
MARINE

STATION/POSITION TIME  TEMP    WIND        PRES    WAVE   SWELL
                       AIR SEA DIR/SP/G            HT/PER HT/PER
                 (UTC) (F)     (DEG/KT/KT) (MB)    (FT/S) (FT/S)
44066 TX TWR #4  1300   69 73  220/  2/  4 1016.4R   2/12   2/12
CAPE MAY NJ      1300   67     260/ 10/ 12 1014.9
LEWES DE         1300   67     260/  6/  9 1015.2
15NM E FENWICK I 1300   70 72              1015.0F   2/ 3
OCEAN-CITY-INLET 1300   68     270/  7/  9 1015.4
WACHAPREAGUE VA  1300   73     270/  5/  9 1016.5
THOMAS POINT MD  1300   67 74  290/  9/ 10 1017.1R
GOOSES REEF MD   1300   69     300/  8/ 12 1016.8S
COVE POINT MD    1300   69     310/  8/ 11 1016.3
SOLOMONS ISLAND  1200      76                N/A
BISHOPS HEAD MD  1300   70     300/ 11/ 13 1016.0
PINEY POINT MD   1300          310/ 11/ 12   N/A
POTOMAC MD       1300   70     300/ 10/ 12 1015.9S
CAMBRIDGE MD     1300   70     300/  8/ 12 1015.7
LEWISETTA VA     1300   69     280/  7/  9 1016.3
RAPPAHANNOCK LGT 1300          280/ 11/ 12 1017.1
STINGRAY PT      1300   70     270/ 10/ 12   N/A
YORK RVR RNG VA  1300   70     300/  9/ 11 1016.4
YORKTOWN VA      1300   70     270/  7/  8 1016.7
JAMESTOWN VA     1300   67     290/  8/ 10   N/A
DOMINION TERM VA 1300   69     250/  9/ 10 1017.1
KIPTOPEKE VA     1300          280/ 12/ 16   N/A
CHES BAY BRIDGE  1300   71     240/ 11/ 15 1016.4
CAPE HENRY VA    1300   71     240/  6/ 12 1015.7
CHESAPEAKE LGHT  1200   71     230/ 18/ 19 1017.1F
WILLOUBY STN VA  1300   69     250/  9/ 10 1015.8
S CRANEY ISL VA  1300          200/  7/  9 1016.8
CAPE HENRY BUOY  1300      75                N/A     2/13
1ST LANDING BUOY 1300   72     250/ 14/ 16 1016.6S
CAPE CHARLES BUO 1300      74                N/A     2/12   2/12
OFFSHORE WE BUOY 1300      74                N/A     3/13   2/13
64NM E OF VA BCH 1300   74 78  260/ 10/ 14 1016.6F   2/ 8   2/ 8
DUCK PIER NC     1300   73     250/  8/ 10 1016.5
44100 DUCK FRF   1300      74                N/A     2/13
44056 DUCK FRF   1300                        N/A     2/ 7
OREGON INLET NC  1300   73     240/  6/  7 1017.5
HATTERAS NC      1300   76     280/  4/  5 1018.0
DIAMOND SHLS NC  1300   76     300/  8/ 10 1017.4F   2/ 7   2/ 7
CAPE LOOKOUT NC  1300   76      60/  6/  7 1017.3S
$$


USA.gov is the U.S. government's official web portal to all federal, state and local government web resources and services.